GW7358 Weather Reports


time (UTC)temp
C
wind
direction
speed
KPH
gust
KPH
rain 1hr
cm
rain 24hr
cm
rain mn
cm
humidity
%
barometer
mb
20260507021011 13 232 0.0 3.2 0.00 0.00 0.00 68 1017.9
20260507020508 13 220 0.0 3.2 0.00 0.00 0.00 67 1017.7
20260507020004 13 104 0.0 3.2 0.00 0.00 0.00 66 1017.6
20260507015503 13 161 0.0 3.2 0.00 0.00 0.00 66 1017.6
20260507015000 13 155 0.0 3.2 0.00 0.00 0.00 68 1017.7
20260507014456 13 191 0.0 3.2 0.00 0.00 0.00 68 1017.8
20260507013952 13 151 0.0 3.2 0.00 0.00 0.00 68 1017.8
20260507013449 13 168 0.0 3.2 0.00 0.00 0.00 67 1017.8
20260507012947 14 182 3.2 4.8 0.00 0.00 0.00 65 1017.8
20260507012443 14 178 1.6 3.2 0.00 0.00 0.00 66 1017.7
20260507011940 14 179 1.6 4.8 0.00 0.00 0.00 67 1017.7
20260507011437 14 176 0.0 1.6 0.00 0.00 0.00 69 1017.7
20260507010937 13 175 0.0 3.2 0.00 0.00 0.00 70 1017.6
20260507010433 13 162 0.0 3.2 0.00 0.00 0.00 71 1017.6
20260507005930 13 174 0.0 3.2 0.00 0.00 0.00 70 1017.6
20260507005427 13 193 0.0 3.2 0.00 0.00 0.00 70 1017.9
20260507004923 13 191 1.6 4.8 0.00 0.00 0.00 69 1018.0
20260507004420 14 136 0.0 3.2 0.00 0.00 0.00 68 1018.0
20260507003918 14 172 0.0 1.6 0.00 0.00 0.00 67 1018.0
20260507003412 14 206 3.2 4.8 0.00 0.00 0.00 64 1017.9
20260507002908 15 206 3.2 3.2 0.00 0.00 0.00 64 1017.8
20260507002404 14 193 3.2 3.2 0.00 0.00 0.00 63 1017.6
20260507001902 15 202 3.2 3.2 0.00 0.00 0.00 65 1017.6
20260507001358 15 153 0.0 3.2 0.00 0.00 0.00 64 1017.8
20260507000856 15 116 0.0 3.2 0.00 0.00 0.00 61 1017.8
20260507000350 15 155 0.0 3.2 0.00 0.00 0.00 62 1017.7
20260506235847 15 194 0.0 4.8 0.00 0.00 0.00 63 1017.8
20260506235344 15 133 0.0 3.2 0.00 0.00 0.00 66 1018.1
20260506234840 15 186 3.2 4.8 0.00 0.00 0.00 67 1018.3
20260506234338 15 183 1.6 3.2 0.00 0.00 0.00 67 1018.6
20260506233836 14 180 1.6 3.2 0.00 0.00 0.00 67 1018.9
20260506233331 14 217 0.0 3.2 0.00 0.00 0.00 67 1019.0
20260506232828 14 173 1.6 3.2 0.00 0.00 0.00 67 1018.9
20260506232324 14 174 1.6 3.2 0.00 0.00 0.00 67 1019.0
20260506231821 14 189 1.6 3.2 0.00 0.00 0.00 67 1018.9
20260506231319 15 182 0.0 3.2 0.00 0.00 0.00 67 1018.9
20260506230816 15 184 3.2 3.2 0.00 0.00 0.00 65 1019.0
20260506230312 15 209 0.0 4.8 0.00 0.00 0.00 65 1019.0
20260506225808 15 152 0.0 3.2 0.00 0.00 0.00 66 1018.8
20260506225306 15 189 3.2 3.2 0.00 0.00 0.00 64 1018.8
20260506224803 15 201 3.2 4.8 0.00 0.00 0.00 65 1018.9
20260506224300 15 10 0.0 4.8 0.00 0.00 0.00 66 1019.1
20260506223756 15 5 0.0 3.2 0.00 0.00 0.00 65 1018.9
20260506223251 15 86 1.6 4.8 0.00 0.00 0.00 67 1019.2
20260506222748 15 192 1.6 3.2 0.00 0.00 0.00 69 1019.2
20260506222244 15 277 0.0 3.2 0.00 0.00 0.00 71 1019.4
20260506221742 15 28 0.0 3.2 0.00 0.00 0.00 71 1019.3
20260506221240 15 31 0.0 3.2 0.00 0.00 0.00 71 1019.1
20260506220737 15 168 0.0 3.2 0.00 0.00 0.00 71 1019.2
20260506220232 15 175 0.0 3.2 0.00 0.00 0.00 71 1019.3
20260506215729 15 217 0.0 3.2 0.00 0.00 0.00 71 1019.1
20260506215224 15 66 0.0 4.8 0.00 0.00 0.00 70 1018.9
20260506214721 15 165 1.6 3.2 0.00 0.00 0.00 70 1019.0
20260506214218 15 180 1.6 3.2 0.00 0.00 0.00 70 1019.1
20260506213716 15 171 0.0 3.2 0.00 0.00 0.00 69 1019.0
20260506213213 15 206 0.0 3.2 0.00 0.00 0.00 68 1018.9
20260506212711 15 152 3.2 4.8 0.00 0.00 0.00 68 1018.9
20260506212206 15 147 3.2 3.2 0.00 0.00 0.00 71 1018.7
20260506211702 15 238 0.0 3.2 0.00 0.00 0.00 71 1018.7
20260506211158 15 158 0.0 3.2 0.00 0.00 0.00 70 1019.0
20260506210655 15 193 0.0 3.2 0.00 0.00 0.00 69 1019.0
20260506210152 15 182 1.6 3.2 0.00 0.00 0.00 69 1018.8
20260506205650 15 163 0.0 3.2 0.00 0.00 0.00 68 1018.6
20260506205149 15 140 0.0 3.2 0.00 0.00 0.00 67 1018.5
20260506204648 16 48 0.0 0.0 0.00 0.00 0.00 65 1018.2
20260506204144 16 95 1.6 3.2 0.00 0.00 0.00 65 1018.3
20260506203643 16 22 0.0 1.6 0.00 0.00 0.00 65 1018.3
20260506203139 16 176 0.0 3.2 0.00 0.00 0.00 65 1018.4
20260506202637 16 218 0.0 3.2 0.00 0.00 0.00 66 1018.3
20260506202133 16 197 0.0 3.2 0.00 0.00 0.00 66 1018.3
20260506201630 16 177 1.6 3.2 0.00 0.00 0.00 66 1018.5
20260506201127 16 208 3.2 3.2 0.00 0.00 0.00 66 1018.5
20260506200623 16 181 1.6 3.2 0.00 0.00 0.00 66 1018.7
20260506200120 16 177 1.6 3.2 0.00 0.00 0.00 67 1018.8
20260506195617 16 87 1.6 3.2 0.00 0.00 0.00 67 1018.8
20260506195113 16 194 3.2 3.2 0.00 0.00 0.00 68 1018.8
20260506194611 16 100 0.0 4.8 0.00 0.00 0.00 68 1018.9
20260506194107 16 155 3.2 4.8 0.00 0.00 0.00 68 1018.9
20260506193605 16 85 0.0 3.2 0.00 0.00 0.00 67 1019.0
20260506193102 16 31 0.0 3.2 0.00 0.00 0.00 67 1018.9
20260506192559 16 181 0.0 0.0 0.00 0.00 0.00 67 1019.1
20260506192054 16 161 0.0 3.2 0.00 0.00 0.00 67 1018.8
20260506191551 16 197 1.6 3.2 0.00 0.00 0.00 69 1018.9
20260506191047 16 226 0.0 1.6 0.00 0.00 0.00 69 1018.8
20260506190545 16 210 0.0 1.6 0.00 0.00 0.00 69 1018.7
20260506190042 16 209 1.6 3.2 0.00 0.00 0.00 69 1018.9
20260506185539 17 54 0.0 3.2 0.00 0.00 0.00 70 1018.7
20260506185035 17 184 1.6 3.2 0.00 0.00 0.00 70 1018.7
20260506184532 17 191 1.6 3.2 0.00 0.00 0.00 71 1018.6
20260506184030 17 220 0.0 3.2 0.00 0.00 0.00 71 1018.7
20260506183525 17 191 3.2 3.2 0.00 0.00 0.00 71 1018.6
20260506183023 17 187 0.0 3.2 0.00 0.00 0.00 71 1018.6
20260506182520 17 161 1.6 3.2 0.00 0.00 0.00 71 1018.6
20260506182017 17 185 0.0 3.2 0.00 0.00 0.00 71 1018.5
20260506181515 17 176 1.6 3.2 0.00 0.00 0.00 71 1018.5
20260506181011 17 20 1.6 3.2 0.00 0.00 0.00 70 1018.5
20260506180508 18 192 0.0 0.0 0.00 0.00 0.00 70 1018.4
20260506180005 18 191 3.2 3.2 0.00 0.00 0.00 71 1018.3
20260506175501 18 196 3.2 3.2 0.00 0.00 0.00 70 1018.5
20260506174957 18 197 3.2 4.8 0.00 0.00 0.00 69 1018.1
20260506174456 18 200 3.2 3.2 0.00 0.00 0.00 69 1018.1
20260506173952 18 193 3.2 3.2 0.00 0.00 0.00 70 1018.3
20260506173450 18 203 0.0 3.2 0.00 0.00 0.00 70 1018.2
20260506172946 19 177 3.2 3.2 0.00 0.00 0.00 70 1018.1
20260506172444 19 196 1.6 3.2 0.00 0.00 0.00 70 1018.0
20260506171940 19 183 1.6 3.2 0.00 0.00 0.00 70 1018.1
20260506171437 20 181 3.2 4.8 0.00 0.00 0.00 70 1017.8
20260506170935 20 166 0.0 4.8 0.00 0.00 0.00 69 1017.9
20260506170431 20 198 1.6 4.8 0.00 0.00 0.00 68 1017.8
20260506165930 20 189 1.6 4.8 0.00 0.00 0.00 66 1017.9
20260506165428 20 189 1.6 3.2 0.00 0.00 0.00 66 1017.8
20260506164924 21 228 3.2 3.2 0.00 0.00 0.00 65 1017.6
20260506164421 21 208 4.8 6.4 0.00 0.00 0.00 66 1017.7
20260506163919 21 190 3.2 6.4 0.00 0.00 0.00 61 1017.7
20260506163413 21 225 1.6 3.2 0.00 0.00 0.00 60 1017.7
20260506162908 21 213 3.2 4.8 0.00 0.00 0.00 65 1017.5
20260506162407 21 195 3.2 8.0 0.00 0.00 0.00 65 1017.7
20260506161904 21 205 8.0 9.7 0.00 0.00 0.00 64 1017.5
20260506161402 21 218 3.2 6.4 0.00 0.00 0.00 64 1017.4
20260506160859 21 196 4.8 9.7 0.00 0.00 0.00 64 1017.6
20260506160356 21 214 4.8 6.4 0.00 0.00 0.00 62 1017.5
20260506155854 22 189 6.4 6.4 0.00 0.00 0.00 59 1017.4
20260506155350 22 188 6.4 6.4 0.00 0.00 0.00 59 1017.4
20260506153502 22 228 3.2 6.4 0.00 0.00 0.00 58 1017.4
20260506152959 22 213 3.2 6.4 0.00 0.00 0.00 53 1017.5
20260506152456 22 224 4.8 6.4 0.00 0.00 0.00 60 1017.6
20260506151954 22 220 8.0 11.3 0.00 0.00 0.00 59 1017.3
20260506151452 22 205 4.8 8.0 0.00 0.00 0.00 57 1017.3
20260506150949 22 200 6.4 11.3 0.00 0.00 0.00 56 1017.4
20260506150444 23 199 6.4 12.9 0.00 0.00 0.00 58 1017.6
20260506145942 23 198 1.6 8.0 0.00 0.00 0.00 51 1017.6
20260506145438 23 212 6.4 9.7 0.00 0.00 0.00 50 1017.6
20260506144936 23 188 3.2 11.3 0.00 0.00 0.00 49 1017.7
20260506144432 22 207 6.4 8.0 0.00 0.00 0.00 50 1017.7
20260506143931 22 196 8.0 11.3 0.00 0.00 0.00 49 1017.9
20260506143427 22 169 6.4 11.3 0.00 0.00 0.00 54 1017.6
20260506142926 22 230 6.4 11.3 0.00 0.00 0.00 55 1017.6
20260506142423 22 198 11.3 16.1 0.00 0.00 0.00 52 1017.8
20260506141921 22 199 6.4 14.5 0.00 0.00 0.00 58 1017.6
20260506141419 22 214 14.5 14.5 0.00 0.00 0.00 60 1017.6
20260506140917 22 197 12.9 16.1 0.00 0.00 0.00 56 1017.9
20260506140414 22 206 11.3 11.3 0.00 0.00 0.00 56 1018.0
20260506135911 22 210 8.0 14.5 0.00 0.00 0.00 58 1017.9
20260506135408 22 194 6.4 17.7 0.00 0.00 0.00 63 1018.0
20260506134903 22 195 14.5 20.9 0.00 0.00 0.00 65 1018.1
20260506134400 23 212 12.9 17.7 0.00 0.00 0.00 61 1018.2
20260506133857 25 212 6.4 11.3 0.00 0.00 0.00 46 1018.0
20260506133353 25 188 6.4 9.7 0.00 0.00 0.00 30 1018.1
20260506132850 24 198 8.0 8.0 0.00 0.00 0.00 39 1018.2
20260506132347 23 208 9.7 11.3 0.00 0.00 0.00 44 1018.2
20260506131846 23 193 6.4 8.0 0.00 0.00 0.00 46 1018.1
20260506131342 23 218 8.0 8.0 0.00 0.00 0.00 61 1018.3
20260506130839 23 215 6.4 11.3 0.00 0.00 0.00 62 1018.4
20260506130335 23 217 8.0 9.7 0.00 0.00 0.00 60 1018.3
20260506125833 22 217 8.0 11.3 0.00 0.00 0.00 60 1018.5
20260506125331 22 219 8.0 11.3 0.00 0.00 0.00 62 1018.4
20260506124830 23 190 6.4 9.7 0.00 0.00 0.00 62 1018.6
20260506124326 22 218 9.7 12.9 0.00 0.00 0.00 64 1018.6
20260506123824 22 211 9.7 14.5 0.00 0.00 0.00 65 1018.6
20260506123322 22 220 11.3 14.5 0.00 0.00 0.00 65 1018.6
20260506122819 22 189 11.3 14.5 0.00 0.00 0.00 63 1018.6
20260506122316 22 192 9.7 17.7 0.00 0.00 0.00 61 1018.8
20260506121814 22 197 9.7 16.1 0.00 0.00 0.00 61 1018.7
20260506121311 22 211 8.0 17.7 0.00 0.00 0.00 60 1018.9
20260506120808 23 203 8.0 16.1 0.00 0.00 0.00 58 1018.8
20260506120306 22 216 11.3 11.3 0.00 0.00 0.00 61 1018.9
20260506115803 22 208 11.3 12.9 0.00 0.00 0.00 60 1019.0
20260506115301 22 206 8.0 14.5 0.00 0.00 0.00 60 1018.9
20260506114759 22 216 4.8 11.3 0.00 0.00 0.00 60 1019.0
20260506114256 22 220 11.3 12.9 0.00 0.00 0.00 60 1019.1
20260506113754 22 219 9.7 12.9 0.00 0.00 0.00 56 1019.3
20260506113252 22 228 6.4 12.9 0.00 0.00 0.00 50 1019.2
20260506112748 21 223 9.7 14.5 0.00 0.00 0.00 56 1019.3
20260506112245 21 234 4.8 14.5 0.00 0.00 0.00 60 1019.3
20260506111743 21 223 9.7 11.3 0.00 0.00 0.00 63 1019.4
20260506111241 21 229 8.0 11.3 0.00 0.00 0.00 61 1019.5
20260506110737 21 198 8.0 12.9 0.00 0.00 0.00 61 1019.4
20260506110235 21 234 6.4 11.3 0.00 0.00 0.00 64 1019.1
20260506105731 21 215 6.4 8.0 0.00 0.00 0.00 67 1019.2
20260506105229 21 224 9.7 12.9 0.00 0.00 0.00 67 1019.2
20260506104726 21 213 8.0 12.9 0.00 0.00 0.00 69 1019.2
20260506104224 21 218 12.9 16.1 0.00 0.00 0.00 69 1019.3
20260506103721 21 217 8.0 14.5 0.00 0.00 0.00 70 1019.1
20260506103217 21 218 9.7 12.9 0.00 0.00 0.00 69 1019.0
20260506102715 21 226 9.7 11.3 0.00 0.00 0.00 70 1019.0
20260506102214 21 218 6.4 11.3 0.00 0.00 0.00 69 1019.0
20260506101710 21 231 8.0 8.0 0.00 0.00 0.00 71 1019.1
20260506101207 21 252 3.2 9.7 0.00 0.00 0.00 71 1019.0
20260506100705 21 212 8.0 11.3 0.00 0.00 0.00 71 1019.1
20260506100202 21 231 8.0 14.5 0.00 0.00 0.00 69 1019.1
20260506095701 21 221 9.7 11.3 0.00 0.00 0.00 70 1019.3
20260506095157 21 204 4.8 9.7 0.00 0.00 0.00 69 1019.4
20260506094655 21 206 6.4 9.7 0.00 0.00 0.00 70 1019.4
20260506094152 21 225 6.4 8.0 0.00 0.00 0.00 69 1019.6
20260506093651 20 208 4.8 9.7 0.00 0.00 0.00 69 1019.5
20260506093148 21 213 8.0 9.7 0.00 0.00 0.00 68 1019.4
20260506092645 21 228 8.0 9.7 0.00 0.00 0.00 70 1019.5
20260506092142 20 229 6.4 11.3 0.00 0.00 0.00 71 1019.5
20260506091640 20 217 9.7 11.3 0.00 0.00 0.00 70 1019.5
20260506091137 21 232 8.0 12.9 0.00 0.00 0.00 69 1019.4
20260506090636 21 227 8.0 11.3 0.00 0.00 0.00 70 1019.2
20260506090131 20 204 11.3 14.5 0.00 0.00 0.00 69 1019.1
20260506085629 21 228 9.7 11.3 0.00 0.00 0.00 66 1019.1
20260506085125 20 228 6.4 9.7 0.00 0.00 0.00 67 1019.1
20260506084621 20 215 9.7 9.7 0.00 0.00 0.00 68 1018.9
20260506084118 20 214 6.4 9.7 0.00 0.00 0.00 68 1019.0
20260506083615 20 195 4.8 8.0 0.00 0.00 0.00 68 1019.0
20260506083113 20 217 4.8 8.0 0.00 0.00 0.00 69 1018.9
20260506082609 20 218 4.8 8.0 0.00 0.00 0.00 70 1018.7
20260506082105 20 260 6.4 6.4 0.00 0.00 0.00 70 1019.0
20260506081603 20 234 4.8 8.0 0.00 0.00 0.00 69 1018.8
20260506081100 20 246 6.4 6.4 0.00 0.00 0.00 70 1019.0
20260506080558 20 215 3.2 8.0 0.00 0.00 0.00 69 1018.7
20260506073038 20 250 4.8 6.4 0.00 0.00 0.00 68 1018.7
20260506072535 20 245 4.8 9.7 0.00 0.00 0.00 67 1018.7
20260506072033 20 207 6.4 9.7 0.00 0.00 0.00 68 1018.6
20260506071531 19 224 9.7 9.7 0.00 0.00 0.00 67 1018.7
20260506071028 19 216 6.4 9.7 0.00 0.00 0.00 66 1018.7
20260506070525 19 235 6.4 12.9 0.00 0.00 0.00 65 1018.7
20260506062502 18 229 3.2 6.4 0.00 0.00 0.00 64 1018.8
20260506061959 18 227 4.8 6.4 0.00 0.00 0.00 64 1018.9
20260506061455 18 209 6.4 8.0 0.00 0.00 0.00 61 1018.9
20260506060953 18 219 4.8 6.4 0.00 0.00 0.00 64 1018.8
20260506060451 18 223 6.4 8.0 0.00 0.00 0.00 67 1018.7
20260506050920 13 191 3.2 3.2 0.00 0.00 0.00 70 1018.2
20260506050418 13 199 1.6 3.2 0.00 0.00 0.00 69 1018.1
20260506044908 13 190 0.0 3.2 0.00 0.00 0.00 71 1017.9
20260506044406 12 216 0.0 3.2 0.00 0.00 0.00 72 1017.7
20260506043902 12 6 0.0 3.2 0.00 0.00 0.00 71 1017.7
20260506043400 12 195 3.2 3.2 0.00 0.00 0.00 72 1017.9
20260506042858 12 169 0.0 3.2 0.00 0.00 0.00 72 1017.7
20260506042357 12 182 1.6 3.2 0.00 0.00 0.00 72 1017.8
20260506041855 12 315 0.0 3.2 0.00 0.00 0.00 71 1017.8
20260506041354 12 190 0.0 3.2 0.00 0.00 0.00 70 1017.8
20260506040849 12 204 1.6 3.2 0.00 0.00 0.00 69 1017.8
20260506040346 12 192 3.2 3.2 0.00 0.00 0.00 69 1017.5
20260506035842 12 201 0.0 3.2 0.00 0.00 0.00 69 1017.5
20260506035340 12 184 0.0 3.2 0.00 0.00 0.00 68 1017.7
20260506034837 12 183 1.6 3.2 0.00 0.00 0.00 68 1017.6
20260506034334 12 205 3.2 3.2 0.00 0.00 0.00 68 1017.6
20260506033831 12 193 0.0 3.2 0.00 0.00 0.00 69 1017.6
20260506033328 12 213 0.0 3.2 0.00 0.00 0.00 71 1017.5
20260506032825 12 179 0.0 3.2 0.00 0.00 0.00 71 1017.7
20260506032322 12 51 0.0 4.8 0.00 0.00 0.00 71 1017.7
20260506031819 12 166 0.0 3.2 0.00 0.00 0.00 71 1017.6
20260506031316 12 174 0.0 4.8 0.00 0.00 0.00 71 1017.6
20260506030814 12 82 0.0 3.2 0.00 0.00 0.00 69 1017.8
20260506030311 12 190 3.2 4.8 0.00 0.00 0.00 68 1017.7
20260506025808 12 196 0.0 3.2 0.00 0.00 0.00 67 1017.7
20260506025305 12 161 1.6 3.2 0.00 0.00 0.00 67 1017.6
20260506024802 12 150 0.0 3.2 0.00 0.00 0.00 67 1017.7
20260506024258 12 177 0.0 3.2 0.00 0.00 0.00 67 1017.5
20260506023754 12 190 0.0 3.2 0.00 0.00 0.00 68 1017.6
20260506023252 12 168 1.6 3.2 0.00 0.00 0.00 68 1017.8
20260506022748 12 174 1.6 3.2 0.00 0.00 0.00 68 1017.9
20260506022246 12 180 0.0 3.2 0.00 0.00 0.00 68 1018.0
20260506021744 13 227 0.0 3.2 0.00 0.00 0.00 68 1018.0
20260506021240 13 214 0.0 3.2 0.00 0.00 0.00 68 1017.9